Location: Arrakis Observatory
(44.1122°N, 95.7153°W)
Time: 08:35:58
(UTC-05:00)

Amateur Radio Satellites - All Passes

Search period start: 27 May 2017 08:05
Search period end: 28 May 2017 08:05
Location: Arrakis Observatory, 44.1122°N, 95.7153°W

Satellite Date Start Highest point End Downlink Frequencies (MHz)
Time Altitude Azimuth
DOVE 4 27 May 08:11:43 08:15:11 26° 292° (WNW) 08:18:43 437.250
CUTE 1.7 + AOD 2 27 May 08:15:16 08:19:05 30° 96° (E) 08:22:50 437.475
CUTE-I 27 May 08:15:16 08:20:33 65° 288° (WNW) 08:25:50 437.470
SO-50 27 May 08:17:44 08:22:01 43° 242° (WSW) 08:26:18 436.795
AAUSAT CUBESAT 2 27 May 08:27:09 08:28:54 12° 89° (E) 08:30:38 437.432
M-CUBED/EXP-1 PRIME 27 May 08:32:54 08:37:04 65° 69° (ENE) 08:40:56 437.505
XW-2D 27 May 08:38:01 08:40:53 20° 293° (WNW) 08:43:43 145.860 - 145.880
ZACube-1 27 May 08:46:00 08:47:55 12° 89° (E) 08:49:51 437.345
XW-2B 27 May 08:46:13 08:48:48 17° 295° (WNW) 08:51:21 145.730 - 145.750
NUDT-PHONESAT 27 May 08:55:22 08:57:49 17° 295° (WNW) 09:00:15 437.300
XW-2F 27 May 08:58:55 09:00:48 13° 297° (WNW) 09:02:42 145.980 - 146.000
CUBEBUG 2 27 May 08:59:27 09:03:54 47° 99° (E) 09:08:25 437.445
XW-2C 27 May 09:00:42 09:02:22 12° 297° (WNW) 09:04:01 145.795 - 145.815
SEEDS 27 May 09:02:59 09:07:12 66° 101° (E) 09:11:21 437.485
NO-84 27 May 09:03:20 09:07:33 46° 135° (SE) 09:11:39 435.350 FM
KAITUO 1B 27 May 09:05:20 09:07:13 13° 296° (WNW) 09:09:05 145.475/437.950
UWE-3 27 May 09:08:30 09:12:45 36° 97° (E) 09:17:03 435.000/436.395/437.385
XW-2A 27 May 09:13:49 09:17:13 56° 285° (WNW) 09:20:36 145.665 - 145.685
STRAND 1 27 May 09:20:55 09:24:04 16° 270° (W) 09:27:14 437.568
Oscar 11 27 May 09:38:36 09:42:27 30° 96° (E) 09:46:16 .
TIGRISAT 27 May 09:42:42 09:46:10 24° 66° (ENE) 09:49:40 435.000
FO-29 27 May 09:43:56 09:48:28 32° 65° (ENE) 09:53:11 435.910
HO-68 27 May 09:43:57 09:51:00 59° 292° (WNW) 09:58:01 435.675
RS-15 27 May 09:50:22 10:01:49 41° 32° (NNE) 10:12:49 29.354- 29.394
CUTE 1.7 + AOD 2 27 May 09:51:16 09:54:47 25° 293° (WNW) 09:58:17 437.475
CUTE-I 27 May 09:59:04 09:59:35 10° 307° (NW) 10:00:06 437.470
AAUSAT CUBESAT 2 27 May 10:00:39 10:04:45 59° 286° (WNW) 10:08:47 437.432
AO-73 27 May 10:05:38 10:10:12 75° 102° (ESE) 10:14:46 145.935
PRISM 27 May 10:07:56 10:12:02 62° 73° (ENE) 10:16:06 437.425
EO-88 27 May 10:08:13 10:08:46 10° 89° (E) 10:09:19 145.990 - 145.960
M-CUBED/EXP-1 PRIME 27 May 10:10:16 10:11:45 12° 263° (W) 10:13:14 437.505
DELFI C3 27 May 10:13:44 10:16:33 19° 93° (E) 10:19:21 145.870
UNISAT 6 27 May 10:13:46 10:17:57 54° 72° (ENE) 10:22:13 437.425
ZACube-1 27 May 10:20:07 10:24:40 72° 285° (WNW) 10:29:14 437.345
CUBEBUG 2 27 May 10:36:50 10:40:11 20° 295° (WNW) 10:43:36 437.445
SEEDS 27 May 10:40:24 10:42:20 13° 298° (WNW) 10:44:15 437.485
NO-84 27 May 10:41:11 10:45:16 38° 332° (NNW) 10:49:11 435.350 FM
UWE-3 27 May 10:45:16 10:49:02 26° 293° (WNW) 10:52:49 435.000/436.395/437.385
Oscar 11 27 May 11:14:49 11:18:29 27° 293° (WNW) 11:22:09 .
AIST 2D 27 May 11:16:38 11:19:42 29° 70° (ENE) 11:22:49 435.315
TIGRISAT 27 May 11:18:50 11:22:42 33° 264° (W) 11:26:39 435.000
NANOSAT C BR1 27 May 11:19:14 11:22:06 18° 64° (ENE) 11:24:58 145.865
POLYITAN 1 27 May 11:24:04 11:27:19 22° 66° (ENE) 11:30:36 437.675
FO-29 27 May 11:28:58 11:33:35 32° 265° (W) 11:38:22 435.910
DUCHIFAT 1 27 May 11:29:13 11:32:19 21° 65° (ENE) 11:35:25 145.980
QB50P2 27 May 11:32:21 11:35:58 29° 68° (ENE) 11:39:37 145.880/145.840
HO-68 27 May 11:34:08 11:37:16 13° 313° (NW) 11:40:25 435.675
ESTCUBE 1 27 May 11:38:32 11:40:06 12° 88° (E) 11:41:42 437.505/2401.250
EO-88 27 May 11:39:10 11:42:48 56° 285° (WNW) 11:46:24 145.990 - 145.960
AO-73 27 May 11:43:37 11:45:51 14° 299° (WNW) 11:48:04 145.935
PRISM 27 May 11:46:09 11:47:42 12° 270° (W) 11:49:14 437.425
DELFI C3 27 May 11:47:50 11:51:26 34° 289° (WNW) 11:55:00 145.870
YUBILEINY 27 May 11:52:33 12:00:26 34° 68° (ENE) 12:08:15 435.215
UNISAT 6 27 May 11:52:39 11:55:01 15° 270° (W) 11:57:27 437.425
RS-15 27 May 12:03:27 12:15:43 82° 240° (WSW) 12:27:20 29.354- 29.394
EO-79 27 May 12:08:34 12:12:43 65° 74° (ENE) 12:16:53 145.935-145.965
AO-85 27 May 12:15:52 12:18:09 15° 38° (NE) 12:20:28 145.980
LO-87 27 May 12:19:36 12:23:07 55° 100° (E) 12:26:37 145.935 - 145.965
NO-84 27 May 12:20:46 12:23:45 18° 352° (N) 12:26:37 435.350 FM
VELOX 1 27 May 12:31:42 12:32:12 10° 88° (E) 12:32:42 145.980
AIST 2D 27 May 12:50:31 12:52:58 18° 267° (W) 12:55:27 435.315
BEESAT 3 27 May 12:53:00 12:54:46 12° 34° (NE) 12:56:31 437.485
NANOSAT C BR1 27 May 12:53:30 12:57:29 43° 261° (W) 13:01:30 145.865
O/OREOS (USA 219) 27 May 12:58:59 13:01:58 17° 51° (NE) 13:04:56 437.305
POLYITAN 1 27 May 12:59:05 13:02:54 34° 263° (W) 13:06:47 437.675
Gurwin Techsat 1B 27 May 12:59:53 13:03:22 18° 60° (ENE) 13:06:51 435.225
DUCHIFAT 1 27 May 13:03:52 13:07:45 37° 263° (W) 13:11:39 145.980
QB50P2 27 May 13:08:12 13:11:44 26° 265° (W) 13:15:17 145.880/145.840
ESTCUBE 1 27 May 13:12:55 13:17:26 73° 285° (WNW) 13:21:54 437.505/2401.250
Oscar 19 27 May 13:13:42 13:18:24 36° 67° (ENE) 13:23:07 437.125/150
BUGSAT 1 27 May 13:18:12 13:22:13 83° 257° (WSW) 13:26:15 437.445
50 SAT 27 May 13:27:42 13:30:10 19° 94° (E) 13:32:37 437.505
EO-79 27 May 13:47:27 13:48:55 12° 271° (W) 13:50:22 145.935-145.965
YUBILEINY 27 May 13:49:05 13:57:40 58° 269° (W) 14:06:14 435.215
SPROUT 27 May 13:52:10 13:56:28 81° 103° (ESE) 14:00:46 437.525
AO-85 27 May 13:55:00 13:59:02 84° 240° (WSW) 14:03:17 145.980
LO-87 27 May 13:55:05 13:56:05 11° 297° (WNW) 13:57:06 145.935 - 145.965
NO-84 27 May 13:59:24 14:02:30 21° 13° (NNE) 14:05:25 435.350 FM
VELOX 1 27 May 14:04:48 14:09:12 79° 285° (WNW) 14:13:34 145.980
BEESAT 2 27 May 14:11:21 14:14:37 23° 43° (NE) 14:17:52 435.950
AO-7 27 May 14:13:57 14:20:29 27° 52° (NE) 14:27:01 .
RS-15 27 May 14:17:59 14:26:09 22° 262° (W) 14:34:07 29.354- 29.394
ITAMSAT 1 27 May 14:19:45 14:22:24 14° 57° (ENE) 14:25:04 435.822/435.867
UKube-1 27 May 14:27:49 14:31:57 44° 100° (E) 14:36:03 .
BEESAT 3 27 May 14:29:02 14:33:04 74° 54° (NE) 14:37:03 437.485
DX 1 27 May 14:37:19 14:41:40 83° 101° (E) 14:45:59 434.975-435.025
O/OREOS (USA 219) 27 May 14:37:20 14:41:49 61° 250° (WSW) 14:46:13 437.305
Gurwin Techsat 1B 27 May 14:37:27 14:42:44 70° 258° (WSW) 14:48:04 435.225
Oscar 19 27 May 14:53:09 14:57:44 31° 264° (W) 15:02:20 437.125/150
50 SAT 27 May 15:00:10 15:03:02 25° 291° (WNW) 15:05:52 437.505
ITUPSAT 1 27 May 15:26:55 15:30:15 18° 92° (E) 15:33:33 437.325
SPROUT 27 May 15:30:28 15:31:44 11° 300° (WNW) 15:33:01 437.525
MOZHAYETS 4 27 May 15:34:20 15:36:15 12° 88° (E) 15:38:09
NO-84 27 May 15:36:53 15:40:45 63° 35° (NE) 15:44:15 435.350 FM
BEESAT 2 27 May 15:48:41 15:52:34 44° 242° (WSW) 15:56:24 435.950
YUBILEINY 27 May 15:51:19 15:52:24 10° 290° (WNW) 15:53:28 435.215
ITAMSAT 1 27 May 15:55:58 16:01:08 87° 251° (WSW) 16:06:22 435.822/435.867
BEESAT 27 May 15:58:57 16:03:25 37° 98° (E) 16:07:51 436.000
AO-7 27 May 16:04:06 16:12:24 81° 252° (WSW) 16:20:47 .
UKube-1 27 May 16:04:37 16:07:40 19° 296° (WNW) 16:10:41 .
BEESAT 3 27 May 16:08:53 16:10:03 11° 252° (WSW) 16:11:12 437.485
DX 1 27 May 16:15:50 16:17:12 11° 301° (WNW) 16:18:34 434.975-435.025
ITUPSAT 1 27 May 17:03:41 17:08:22 53° 289° (WNW) 17:13:03 437.325
MOZHAYETS 4 27 May 17:09:16 17:13:55 73° 285° (WNW) 17:18:32
NO-84 27 May 17:15:27 17:17:51 17° 235° (SW) 17:20:07 435.350 FM
BEESAT 27 May 17:37:03 17:41:01 26° 295° (WNW) 17:44:58 436.000
ITAMSAT 1 27 May 17:40:04 17:41:21 11° 273° (W) 17:42:38 435.822/435.867
DOVE 4 27 May 17:40:36 17:44:44 35° 70° (ENE) 17:48:42 437.250
XW-2D 27 May 17:46:25 17:49:16 20° 67° (ENE) 17:52:09 145.860 - 145.880
XW-2B 27 May 17:54:08 17:57:13 24° 68° (ENE) 18:00:20 145.730 - 145.750
KKS-1 27 May 17:54:37 17:58:57 49° 100° (E) 18:03:14 437.445
CUBESAT XI-V 27 May 17:58:05 18:02:44 68° 101° (ESE) 18:07:20 437.345
CUTE-I 27 May 17:59:24 18:04:07 34° 66° (ENE) 18:08:51 437.470
AO-7 27 May 18:01:33 18:06:24 17° 272° (W) 18:11:19 .
NUDT-PHONESAT 27 May 18:01:38 18:04:34 22° 68° (ENE) 18:07:31 437.300
XW-2F 27 May 18:05:35 18:08:56 30° 70° (ENE) 18:12:21 145.980 - 146.000
XW-2C 27 May 18:07:24 18:10:51 33° 71° (ENE) 18:14:21 145.795 - 145.815
KAITUO 1B 27 May 18:11:19 18:14:37 29° 70° (ENE) 18:17:56 145.475/437.950
STARS 27 May 18:22:27 18:26:38 42° 99° (E) 18:30:49 437.465
PCSat 27 May 18:27:35 18:30:23 14° 103° (ESE) 18:33:12 145.827
HO-68 27 May 18:27:40 18:33:23 27° 57° (ENE) 18:39:08 435.675
LilacSat-2 27 May 18:46:24 18:50:14 78° 258° (WSW) 18:54:08 437.200
CUTE 1.7 + AOD 2 27 May 19:09:15 19:12:52 27° 68° (ENE) 19:16:29 437.475
DOVE 4 27 May 19:18:52 19:22:30 23° 265° (W) 19:26:00 437.250
AAUSAT CUBESAT 2 27 May 19:19:34 19:20:51 11° 61° (ENE) 19:22:07 437.432
XW-2D 27 May 19:19:52 19:23:16 31° 264° (W) 19:26:44 145.860 - 145.880
XW-2B 27 May 19:28:03 19:31:18 26° 265° (W) 19:34:35 145.730 - 145.750
KKS-1 27 May 19:32:07 19:35:08 18° 297° (WNW) 19:38:08 437.445
NUDT-PHONESAT 27 May 19:35:10 19:38:20 27° 264° (W) 19:41:34 437.300
CUBESAT XI-V 27 May 19:36:56 19:39:33 15° 299° (WNW) 19:42:08 437.345
CUTE-I 27 May 19:39:20 19:44:07 34° 264° (W) 19:48:56 437.470
XW-2F 27 May 19:40:16 19:43:07 20° 267° (W) 19:46:00 145.980 - 146.000
XW-2C 27 May 19:42:26 19:45:09 18° 267° (W) 19:47:53 145.795 - 145.815
ZACube-1 27 May 19:44:07 19:45:36 12° 60° (ENE) 19:47:06 437.345
KAITUO 1B 27 May 19:45:45 19:48:38 21° 266° (W) 19:51:33 145.475/437.950
XW-2A 27 May 19:46:09 19:49:25 54° 75° (ENE) 19:52:45 145.665 - 145.685
STRAND 1 27 May 19:49:12 19:52:54 20° 92° (E) 19:56:35 437.568
SEEDS 27 May 19:55:34 19:59:43 53° 73° (ENE) 20:03:52 437.485
CUBEBUG 2 27 May 19:59:03 20:03:00 43° 71° (ENE) 20:07:03 437.445
STARS 27 May 19:59:28 20:02:42 20° 296° (WNW) 20:05:56 437.465
ISS 27 May 20:02:51 20:04:50 15° 133° (SE) 20:06:51 437.550
UWE-3 27 May 20:07:02 20:10:47 32° 69° (ENE) 20:14:38 435.000/436.395/437.385
PCSat 27 May 20:07:36 20:13:01 84° 300° (WNW) 20:18:30 145.827
HO-68 27 May 20:13:22 20:20:31 69° 256° (WSW) 20:27:44 435.675
Oscar 11 27 May 20:34:43 20:38:25 28° 68° (ENE) 20:42:08 .
CUTE 1.7 + AOD 2 27 May 20:44:51 20:48:36 29° 264° (W) 20:52:23 437.475
AAUSAT CUBESAT 2 27 May 20:51:30 20:55:41 77° 258° (WSW) 20:59:53 437.432
Tancredo 1 27 May 20:54:10 20:57:12 69° 146° (SE) 21:00:16 437.200
DELFI C3 27 May 21:01:14 21:03:26 15° 64° (ENE) 21:05:39 145.870
AO-73 27 May 21:02:14 21:06:26 66° 73° (ENE) 21:10:45 145.935
ZACube-1 27 May 21:16:59 21:21:13 78° 257° (WSW) 21:25:35 437.345
STRAND 1 27 May 21:27:22 21:32:24 55° 289° (WNW) 21:37:25 437.568
SEEDS 27 May 21:33:21 21:35:43 14° 270° (W) 21:38:05 437.485
CUBEBUG 2 27 May 21:37:06 21:39:52 17° 269° (W) 21:42:42 437.445
ISS 27 May 21:37:40 21:40:57 77° 330° (NNW) 21:44:16 437.550
UWE-3 27 May 21:43:55 21:47:18 23° 267° (W) 21:50:46 435.000/436.395/437.385
M-CUBED/EXP-1 PRIME 27 May 21:44:40 21:47:34 28° 103° (ESE) 21:50:27 437.505
PCSat 27 May 21:53:35 21:57:16 18° 322° (NW) 22:00:57 145.827
UNISAT 6 27 May 22:06:01 22:07:17 11° 88° (E) 22:08:34 437.425
HO-68 27 May 22:07:09 22:09:31 12° 275° (W) 22:11:53 435.675
Oscar 11 27 May 22:10:42 22:14:29 29° 265° (W) 22:18:17 .
EO-88 27 May 22:17:49 22:21:27 73° 76° (ENE) 22:25:08 145.990 - 145.960
Tancredo 1 27 May 22:30:30 22:33:10 26° 344° (NNW) 22:35:51 437.200
SO-50 27 May 22:32:57 22:37:15 40° 118° (ESE) 22:41:31 436.795
FO-29 27 May 22:33:53 22:39:36 31° 95° (E) 22:45:50 435.910
DELFI C3 27 May 22:33:55 22:37:48 51° 260° (W) 22:41:43 145.870
ESTCUBE 1 27 May 22:39:14 22:41:41 15° 61° (ENE) 22:44:09 437.505/2401.250
AO-73 27 May 22:41:35 22:43:09 12° 272° (W) 22:44:45 145.935
LO-87 27 May 22:57:15 23:00:16 27° 70° (ENE) 23:03:19 145.935 - 145.965
TIGRISAT 27 May 23:07:52 23:12:17 44° 99° (E) 23:16:45 435.000
ISS 27 May 23:15:03 23:17:50 24° 349° (N) 23:20:37 437.550
M-CUBED/EXP-1 PRIME 27 May 23:19:42 23:21:52 16° 300° (WNW) 23:24:00 437.505
PRISM 27 May 23:22:46 23:26:52 83° 106° (ESE) 23:30:54 437.425
VELOX 1 27 May 23:29:41 23:31:36 13° 60° (ENE) 23:33:31 145.980
UNISAT 6 27 May 23:39:54 23:44:32 82° 285° (WNW) 23:49:13 437.425
50 SAT 28 May 00:03:36 00:03:59 10° 63° (ENE) 00:04:23 437.505
Tancredo 1 28 May 00:07:14 00:09:37 20° 4° (N) 00:11:59 437.200
AIST 2D 28 May 00:13:02 00:16:12 29° 96° (E) 00:19:20 435.315
ESTCUBE 1 28 May 00:13:25 00:17:56 68° 258° (WSW) 00:22:29 437.505/2401.250
SO-50 28 May 00:13:49 00:17:49 29° 316° (NW) 00:21:47 436.795
FO-29 28 May 00:18:34 00:24:47 53° 290° (WNW) 00:31:45 435.910
RS-15 28 May 00:24:36 00:28:56 13° 92° (E) 00:33:16 29.354- 29.394
LO-87 28 May 00:31:07 00:33:44 19° 266° (W) 00:36:20 145.935 - 145.965
NANOSAT C BR1 28 May 00:36:18 00:39:52 25° 95° (E) 00:43:24 145.865
POLYITAN 1 28 May 00:41:59 00:45:51 32° 97° (E) 00:49:42 437.675
TIGRISAT 28 May 00:45:12 00:48:41 22° 295° (WNW) 00:52:13 435.000
DUCHIFAT 1 28 May 00:46:06 00:49:48 29° 96° (E) 00:53:31 145.980
SPROUT 28 May 00:46:32 00:50:44 73° 75° (ENE) 00:54:59 437.525
QB50P2 28 May 00:50:35 00:54:41 43° 99° (E) 00:58:45 145.880/145.840
ISS 28 May 00:52:19 00:55:03 23° 9° (N) 00:57:48 437.550
YUBILEINY 28 May 00:55:53 01:03:32 36° 84° (E) 01:11:13 435.215
BUGSAT 1 28 May 00:59:55 01:01:45 13° 90° (E) 01:03:36 437.445
PRISM 28 May 01:01:16 01:01:29 10° 301° (WNW) 01:01:41 437.425
VELOX 1 28 May 01:03:03 01:07:27 75° 257° (WSW) 01:11:53 145.980
UNISAT 6 28 May 01:19:38 01:20:28 10° 302° (WNW) 01:21:20 437.425
UKube-1 28 May 01:23:22 01:27:29 45° 71° (ENE) 01:31:36 .
EO-79 28 May 01:27:06 01:31:23 82° 284° (WNW) 01:35:39 145.935-145.965
50 SAT 28 May 01:32:59 01:36:22 56° 259° (W) 01:39:48 437.505
DX 1 28 May 01:33:50 01:38:11 85° 75° (ENE) 01:42:34 434.975-435.025
Tancredo 1 28 May 01:42:57 01:45:54 43° 24° (NNE) 01:48:51 437.200
AIST 2D 28 May 01:46:39 01:49:13 19° 293° (WNW) 01:51:47 435.315
FO-29 28 May 02:07:57 02:08:40 10° 308° (NW) 02:09:23 435.910
NANOSAT C BR1 28 May 02:11:50 02:15:33 30° 292° (WNW) 02:19:17 145.865
POLYITAN 1 28 May 02:18:00 02:21:29 25° 293° (WNW) 02:24:58 437.675
DUCHIFAT 1 28 May 02:21:50 02:25:24 27° 292° (WNW) 02:28:57 145.980
SPROUT 28 May 02:26:18 02:27:09 10° 272° (W) 02:27:59 437.525
RS-15 28 May 02:26:48 02:38:31 60° 114° (ESE) 02:50:30 29.354- 29.394
QB50P2 28 May 02:27:08 02:30:10 19° 296° (WNW) 02:33:11 145.880/145.840
ISS 28 May 02:28:42 02:31:59 66° 29° (NNE) 02:35:15 437.550
BUGSAT 1 28 May 02:33:23 02:37:28 59° 287° (WNW) 02:41:35 437.445
ITUPSAT 1 28 May 02:34:51 02:38:47 26° 65° (ENE) 02:42:44 437.325
MOZHAYETS 4 28 May 02:37:29 02:40:09 15° 61° (ENE) 02:42:50
YUBILEINY 28 May 02:51:31 02:59:58 53° 285° (WNW) 03:08:34 435.215
Gurwin Techsat 1B 28 May 02:52:11 02:57:14 41° 98° (E) 03:02:13 435.225
UKube-1 28 May 03:00:50 03:03:44 17° 268° (W) 03:06:38 .
Oscar 19 28 May 03:02:18 03:07:30 82° 103° (ESE) 03:12:38 437.125/150
BEESAT 28 May 03:06:31 03:11:07 51° 71° (ENE) 03:15:45 436.000
PCSat 28 May 03:11:23 03:15:31 21° 41° (NE) 03:19:36 145.827
O/OREOS (USA 219) 28 May 03:14:29 03:16:29 13° 98° (E) 03:18:27 437.305
Tancredo 1 28 May 03:18:54 03:21:33 27° 222° (SW) 03:24:11 437.200
CUBESAT XI-V 28 May 03:30:09 03:30:29 10° 57° (ENE) 03:30:50 437.345
AO-7 28 May 04:04:28 04:11:43 31° 95° (E) 04:18:54 .
ISS 28 May 04:05:53 04:08:10 18° 226° (SW) 04:10:27 437.550
ITAMSAT 1 28 May 04:07:37 04:12:09 29° 95° (E) 04:16:39 435.822/435.867
AO-85 28 May 04:11:54 04:14:55 19° 114° (ESE) 04:17:50 145.980
ITUPSAT 1 28 May 04:12:00 04:16:26 38° 262° (W) 04:20:54 437.325
MOZHAYETS 4 28 May 04:12:12 04:16:46 65° 258° (WSW) 04:21:24
Gurwin Techsat 1B 28 May 04:32:30 04:36:59 28° 296° (WNW) 04:41:28 435.225
RS-15 28 May 04:39:31 04:51:23 53° 319° (NW) 05:03:26 29.354- 29.394
Oscar 19 28 May 04:43:19 04:46:08 15° 302° (WNW) 04:48:56 437.125/150
BEESAT 28 May 04:45:53 04:49:11 18° 268° (W) 04:52:30 436.000
O/OREOS (USA 219) 28 May 04:50:40 04:55:15 70° 295° (WNW) 04:59:51 437.305
KKS-1 28 May 04:53:47 04:58:06 55° 72° (ENE) 05:02:26 437.445
PCSat 28 May 04:54:04 04:59:32 78° 240° (WSW) 05:04:56 145.827
YUBILEINY 28 May 04:56:51 04:59:17 11° 310° (NW) 05:01:44 435.215
CUBESAT XI-V 28 May 05:02:19 05:07:02 77° 75° (ENE) 05:11:45 437.345
STARS 28 May 05:20:13 05:24:21 45° 71° (ENE) 05:28:31 437.465
SO-50 28 May 05:23:41 05:25:31 12° 30° (NNE) 05:27:22 436.795
BEESAT 2 28 May 05:41:45 05:44:43 20° 113° (ESE) 05:47:43 435.950
ITAMSAT 1 28 May 05:46:52 05:51:40 38° 293° (WNW) 05:56:27 435.822/435.867
AO-85 28 May 05:51:07 05:55:03 43° 310° (NW) 05:58:50 145.980
AO-7 28 May 05:56:43 06:04:56 63° 295° (WNW) 06:13:08 .
BEESAT 3 28 May 05:56:55 06:00:52 80° 122° (ESE) 06:04:54 437.485
CUTE-I 28 May 06:17:09 06:18:31 11° 87° (E) 06:19:54 437.470
LilacSat-2 28 May 06:20:44 06:21:26 10° 89° (E) 06:22:08 437.200
KKS-1 28 May 06:32:25 06:34:59 15° 269° (W) 06:37:35 437.445
O/OREOS (USA 219) 28 May 06:34:37 06:35:33 11° 315° (NW) 06:36:29 437.305
PCSat 28 May 06:40:45 06:41:58 11° 259° (W) 06:43:11 145.827
CUBESAT XI-V 28 May 06:43:11 06:44:56 12° 272° (W) 06:46:43 437.345
XW-2D 28 May 06:50:51 06:53:59 23° 94° (E) 06:57:05 145.860 - 145.880
RS-15 28 May 06:57:25 07:07:41 29° 351° (N) 07:17:53 29.354- 29.394
STARS 28 May 06:57:57 07:00:55 18° 267° (W) 07:03:54 437.465
XW-2B 28 May 06:58:42 07:02:02 27° 96° (E) 07:05:20 145.730 - 145.750
SO-50 28 May 07:02:31 07:06:58 56° 51° (NE) 07:11:25 436.795
NUDT-PHONESAT 28 May 07:03:48 07:06:56 24° 95° (E) 07:10:02 437.300
STRAND 1 28 May 07:06:15 07:10:45 33° 66° (ENE) 07:15:17 437.568
XW-2F 28 May 07:09:52 07:13:26 35° 97° (E) 07:16:57 145.980 - 146.000
XW-2C 28 May 07:12:12 07:15:52 40° 98° (E) 07:19:30 145.795 - 145.815
DOVE 4 28 May 07:14:30 07:18:41 79° 104° (ESE) 07:22:59 437.250
KAITUO 1B 28 May 07:14:32 07:18:00 33° 97° (E) 07:21:26 145.475/437.950
BEESAT 2 28 May 07:18:25 07:22:13 41° 311° (NW) 07:26:04 435.950
BEESAT 3 28 May 07:36:34 07:38:58 15° 322° (NW) 07:41:25 437.485
HO-68 28 May 07:40:24 07:45:45 22° 91° (E) 07:51:03 435.675
AO-7 28 May 07:51:20 07:56:06 17° 316° (NW) 08:00:54 .
LilacSat-2 28 May 07:52:15 07:56:07 62° 285° (WNW) 07:59:55 437.200
CUTE-I 28 May 07:53:58 07:59:21 84° 106° (ESE) 08:04:42 437.470
